| time (UTC) | temp C | wind direction | speed KPH | gust KPH | rain 1hr cm | rain 24hr cm | rain mn cm | humidity % | barometer mb |
| 20260506212003 | 16 | 0 | 0.0 | 0.0 | 0.00 | 0.00 | 0.00 | 67 | 1010.4 |
| 20260506211005 | 16 | 225 | 0.0 | 3.2 | 0.00 | 0.00 | 0.00 | 65 | 1010.2 |
| 20260506210006 | 17 | 198 | 1.6 | 3.2 | 0.00 | 0.00 | 0.00 | 63 | 1010.2 |
| 20260506204005 | 17 | 204 | 3.2 | 4.8 | 0.00 | 0.00 | 0.00 | 62 | 1010.2 |
| 20260506203005 | 17 | 204 | 1.6 | 6.4 | 0.00 | 0.00 | 0.00 | 61 | 1010.1 |
| 20260506202005 | 18 | 213 | 1.6 | 3.2 | 0.00 | 0.00 | 0.00 | 60 | 1010.2 |
| 20260506201005 | 18 | 356 | 1.6 | 4.8 | 0.00 | 0.00 | 0.00 | 59 | 1010.3 |
| 20260506200006 | 18 | 319 | 1.6 | 6.4 | 0.00 | 0.00 | 0.00 | 57 | 1010.3 |
| 20260506195005 | 19 | 288 | 3.2 | 8.0 | 0.00 | 0.00 | 0.00 | 55 | 1010.2 |
| 20260506194005 | 20 | 225 | 3.2 | 6.4 | 0.00 | 0.00 | 0.00 | 52 | 1010.3 |
| 20260506193005 | 20 | 249 | 3.2 | 9.7 | 0.00 | 0.00 | 0.00 | 50 | 1010.2 |
| 20260506192005 | 20 | 242 | 3.2 | 16.1 | 0.00 | 0.00 | 0.00 | 48 | 1010.4 |
| 20260506191005 | 19 | 266 | 12.9 | 20.9 | 0.00 | 0.00 | 0.00 | 51 | 1010.1 |
| 20260506190006 | 19 | 177 | 3.2 | 8.0 | 0.00 | 0.00 | 0.00 | 51 | 1009.9 |
| 20260506185005 | 19 | 175 | 3.2 | 6.4 | 0.00 | 0.00 | 0.00 | 51 | 1009.7 |
| 20260506184005 | 20 | 167 | 1.6 | 6.4 | 0.00 | 0.00 | 0.00 | 50 | 1009.5 |
| 20260506183006 | 20 | 165 | 3.2 | 6.4 | 0.00 | 0.00 | 0.00 | 49 | 1009.4 |
| 20260506182005 | 20 | 155 | 4.8 | 6.4 | 0.00 | 0.00 | 0.00 | 48 | 1009.2 |
| 20260506181005 | 20 | 169 | 3.2 | 6.4 | 0.00 | 0.00 | 0.00 | 48 | 1009.4 |
| 20260506180006 | 20 | 164 | 3.2 | 8.0 | 0.00 | 0.00 | 0.00 | 48 | 1009.2 |
| 20260506175005 | 21 | 161 | 3.2 | 8.0 | 0.00 | 0.00 | 0.00 | 48 | 1009.3 |
| 20260506173005 | 21 | 110 | 1.6 | 4.8 | 0.00 | 0.00 | 0.00 | 45 | 1009.2 |
| 20260506172005 | 22 | 148 | 3.2 | 8.0 | 0.00 | 0.00 | 0.00 | 45 | 1009.1 |
| 20260506171005 | 22 | 203 | 3.2 | 11.3 | 0.00 | 0.00 | 0.00 | 42 | 1009.5 |
| 20260506170005 | 23 | 201 | 6.4 | 9.7 | 0.00 | 0.00 | 0.00 | 39 | 1009.5 |
| 20260506165005 | 23 | 185 | 6.4 | 9.7 | 0.00 | 0.00 | 0.00 | 38 | 1009.5 |
| 20260506164005 | 23 | 179 | 3.2 | 12.9 | 0.00 | 0.00 | 0.00 | 38 | 1009.5 |
| 20260506163005 | 24 | 170 | 8.0 | 16.1 | 0.00 | 0.00 | 0.00 | 34 | 1009.6 |
| 20260506162005 | 25 | 172 | 11.3 | 16.1 | 0.00 | 0.00 | 0.00 | 31 | 1009.6 |
| 20260506161005 | 26 | 145 | 4.8 | 6.4 | 0.00 | 0.00 | 0.00 | 29 | 1009.5 |
| 20260506143004 | 28 | 183 | 8.0 | 19.3 | 0.00 | 0.00 | 0.00 | 23 | 1009.7 |
| 20260506141005 | 29 | 136 | 4.8 | 12.9 | 0.00 | 0.00 | 0.00 | 22 | 1009.4 |
| 20260506140004 | 28 | 185 | 8.0 | 24.1 | 0.00 | 0.00 | 0.00 | 24 | 1009.6 |
| 20260506135004 | 28 | 166 | 12.9 | 20.9 | 0.00 | 0.00 | 0.00 | 23 | 1009.5 |
| 20260506134004 | 29 | 202 | 11.3 | 20.9 | 0.00 | 0.00 | 0.00 | 21 | 1009.8 |
| 20260506133005 | 29 | 192 | 8.0 | 20.9 | 0.00 | 0.00 | 0.00 | 22 | 1009.7 |
| 20260506132005 | 30 | 232 | 4.8 | 25.7 | 0.00 | 0.00 | 0.00 | 22 | 1009.5 |
| 20260506131004 | 31 | 227 | 8.0 | 20.9 | 0.00 | 0.00 | 0.00 | 19 | 1009.2 |
| 20260506130005 | 31 | 279 | 3.2 | 24.1 | 0.00 | 0.00 | 0.00 | 20 | 1009.3 |
| 20260506124005 | 30 | 349 | 8.0 | 19.3 | 0.00 | 0.00 | 0.00 | 20 | 1009.4 |
| 20260506123004 | 31 | 256 | 4.8 | 27.4 | 0.00 | 0.00 | 0.00 | 19 | 1009.5 |
| 20260506122004 | 30 | 69 | 4.8 | 24.1 | 0.00 | 0.00 | 0.00 | 20 | 1009.6 |
| 20260506121004 | 30 | 182 | 6.4 | 27.4 | 0.00 | 0.00 | 0.00 | 20 | 1009.5 |
| 20260506115004 | 30 | 254 | 12.9 | 22.5 | 0.00 | 0.00 | 0.00 | 20 | 1009.5 |
| 20260506114005 | 30 | 271 | 4.8 | 24.1 | 0.00 | 0.00 | 0.00 | 20 | 1009.5 |
| 20260506113005 | 30 | 245 | 12.9 | 22.5 | 0.00 | 0.00 | 0.00 | 20 | 1009.4 |
| 20260506110005 | 28 | 259 | 6.4 | 25.7 | 0.00 | 0.00 | 0.00 | 22 | 1009.4 |
| 20260506105005 | 28 | 290 | 6.4 | 20.9 | 0.00 | 0.00 | 0.00 | 22 | 1009.6 |
| 20260506103005 | 28 | 201 | 11.3 | 40.2 | 0.00 | 0.00 | 0.00 | 22 | 1009.4 |
| 20260506101005 | 28 | 196 | 12.9 | 29.0 | 0.00 | 0.00 | 0.00 | 22 | 1009.4 |
| 20260506100004 | 27 | 191 | 14.5 | 37.0 | 0.00 | 0.00 | 0.00 | 20 | 1009.7 |
| 20260506095004 | 27 | 214 | 14.5 | 27.4 | 0.00 | 0.00 | 0.00 | 20 | 1009.5 |
| 20260506094005 | 27 | 207 | 12.9 | 30.6 | 0.00 | 0.00 | 0.00 | 20 | 1009.8 |
| 20260506093005 | 27 | 196 | 17.7 | 27.4 | 0.00 | 0.00 | 0.00 | 21 | 1009.6 |
| 20260506092004 | 26 | 231 | 14.5 | 37.0 | 0.00 | 0.00 | 0.00 | 22 | 1009.9 |
| 20260506090005 | 26 | 195 | 19.3 | 32.2 | 0.00 | 0.00 | 0.00 | 23 | 1009.7 |
| 20260506085005 | 26 | 209 | 12.9 | 33.8 | 0.00 | 0.00 | 0.00 | 22 | 1009.8 |
| 20260506084004 | 25 | 225 | 20.9 | 32.2 | 0.00 | 0.00 | 0.00 | 24 | 1009.6 |